Theta_e
350 347 341 334 328 328 325 325 325 325 327 331 336 340 342 343 342 340 339 337 337 338 339 340 339 339 339 339 338 337 337 339 340 340 340 339 340 340 340 340 339 339 339 338 338 336 336 336 336 336 335 335 334 334 334 334 333 331 330 331 331 331 331 330 331 334 335 335 336 336 335 337 337 337 338 338 338 338 338 339 338 338 338 338 337
350 346 341 334 330 328 325 325 324 325 326 330 335 341 343 343 343 341 340 339 340 341 342 341 339 339 339 339 338 338 339 340 340 339 339 340 339 339 339 339 339 339 337 337 336 336 336 337 336 335 334 335 334 334 334 334 333 331 329 328 330 332 331 330 331 331 334 335 335 336 336 336 336 337 337 337 337 337 337 338 338 337 338 338 338
348 347 342 335 331 328 325 324 323 325 326 330 335 340 342 343 343 342 342 341 341 342 341 340 339 339 339 339 339 340 341 340 338 338 340 339 338 338 339 338 337 336 336 336 336 336 337 337 334 334 334 335 335 335 334 334 335 334 331 326 326 330 331 330 331 331 332 334 334 335 335 336 336 336 337 337 337 337 337 337 337 337 337 338 337
347 346 341 334 331 328 325 324 324 324 325 329 333 338 341 343 343 343 343 342 341 341 339 338 339 338 338 339 340 342 340 339 339 338 339 339 339 339 340 340 337 335 335 336 336 337 338 337 334 334 335 334 334 334 335 336 336 335 334 329 324 326 331 331 330 331 331 332 332 334 334 336 336 336 336 336 336 336 336 337 337 337 337 336 336
348 346 341 337 335 329 325 325 324 324 325 328 331 334 337 339 340 340 340 339 339 338 337 337 337 336 337 339 340 339 336 337 339 339 339 340 340 341 341 341 339 336 335 336 337 337 338 337 335 335 336 335 335 334 334 336 336 335 335 333 327 323 328 331 330 330 330 331 331 331 333 335 335 335 335 335 335 335 336 336 336 336 336 335 333
348 345 343 341 339 333 326 326 324 324 325 327 330 332 333 334 334 335 336 336 336 336 336 335 336 336 336 337 338 337 337 338 337 338 340 340 341 342 341 340 339 337 337 338 338 338 339 338 337 338 338 337 336 336 335 336 336 336 335 335 330 323 323 327 328 329 329 329 329 330 330 333 334 334 335 334 335 334 335 335 335 334 334 334 333
347 345 343 342 342 335 327 326 324 326 328 329 331 331 332 332 332 334 336 336 335 336 336 336 337 338 339 339 340 339 340 339 336 335 337 339 341 340 340 339 338 337 338 339 339 339 339 339 339 338 339 338 338 337 336 336 335 336 336 335 332 326 322 324 326 327 328 329 330 331 330 331 332 333 334 334 334 334 335 334 333 333 332 333 333
346 345 343 341 341 335 327 325 325 330 333 332 333 334 335 335 336 337 336 335 334 335 336 337 338 340 341 341 342 341 341 340 338 336 335 337 339 338 338 338 337 338 338 339 340 339 339 339 338 338 338 338 337 337 336 335 334 334 335 334 332 327 323 324 326 327 329 330 330 330 329 329 329 331 332 333 334 334 334 333 332 331 331 331 333
346 345 343 342 340 334 327 325 327 334 334 333 335 337 338 337 337 336 336 335 335 336 336 337 337 340 341 341 341 341 341 339 338 338 335 335 336 337 338 337 337 338 339 339 340 339 339 338 338 338 338 336 334 334 333 333 333 333 334 333 332 328 324 323 325 328 330 330 329 329 328 328 329 329 330 331 332 331 332 333 332 332 331 331 332
345 344 343 342 339 332 326 326 330 334 334 331 334 338 337 336 335 335 335 335 336 337 337 337 337 339 339 340 340 339 339 338 338 338 338 337 337 338 338 337 337 338 339 339 339 339 339 338 338 338 336 334 333 333 333 333 333 333 333 333 331 328 324 322 324 328 329 329 329 328 328 329 329 328 328 329 330 329 330 331 332 332 331 330 330
345 344 343 342 337 330 326 327 332 335 332 330 334 337 336 336 336 336 335 334 336 337 338 339 338 339 339 340 340 339 338 336 336 337 338 338 338 337 336 336 338 338 338 338 338 338 338 338 337 335 333 332 333 334 334 333 333 332 332 331 329 326 322 322 326 328 329 330 330 329 328 329 329 329 328 329 330 330 330 330 331 331 330 330 330
344 344 343 343 337 330 326 327 332 334 331 330 334 337 337 336 336 335 334 334 336 337 338 339 339 339 339 339 340 338 336 335 335 337 338 337 336 335 333 334 337 338 338 338 338 338 337 336 334 332 332 332 333 334 333 332 332 331 330 329 327 324 320 321 327 329 329 330 330 330 330 330 330 329 329 329 329 329 330 330 330 330 329 329 328
344 344 343 342 339 334 325 325 331 331 331 331 332 335 337 336 335 335 335 335 336 338 338 338 338 337 337 337 338 336 335 336 336 337 337 337 336 335 333 332 336 338 337 338 337 336 335 334 332 331 331 332 333 334 334 332 331 331 330 328 326 323 320 322 328 329 329 329 330 330 330 330 330 329 329 329 328 328 328 328 328 328 328 327 326
344 344 344 342 341 336 324 324 331 331 332 331 330 334 336 335 335 336 336 335 335 337 337 337 337 335 335 336 336 335 335 336 336 337 337 337 335 336 333 331 334 337 336 336 335 334 333 334 333 331 331 332 333 335 334 332 331 331 330 328 326 324 321 323 327 329 329 329 330 330 330 331 329 329 329 329 328 328 327 327 326 326 326 326 326
344 344 344 342 342 339 330 329 333 333 333 332 331 333 333 334 335 335 336 335 335 336 336 336 335 334 335 336 336 336 336 336 335 335 336 336 335 335 333 331 332 334 334 334 333 333 333 333 331 330 331 332 333 335 335 333 331 331 331 329 327 326 324 325 328 328 329 330 330 330 331 330 328 329 329 329 328 327 327 327 326 326 326 326 326
344 344 343 342 342 341 338 337 336 334 334 334 334 333 333 335 335 335 336 335 335 335 335 334 333 333 334 334 334 334 334 335 335 335 335 335 335 335 333 333 332 333 333 332 333 332 332 331 329 329 330 331 333 334 334 333 332 331 331 330 328 327 325 326 329 329 329 329 330 331 331 330 328 329 329 329 328 327 326 326 326 326 326 326 326
344 344 343 342 342 342 341 340 340 337 335 336 337 336 336 336 334 335 335 335 335 334 333 332 332 332 331 330 330 331 332 334 335 335 334 335 335 334 333 333 332 332 332 331 332 331 330 329 329 329 330 331 333 334 334 334 333 332 332 331 329 328 326 326 328 329 329 328 329 331 331 329 329 329 329 328 328 327 326 326 326 326 326 325 326
344 344 343 342 342 341 339 338 339 339 337 338 339 338 336 335 334 334 334 333 333 333 332 332 332 332 331 331 332 333 332 333 334 334 335 335 334 334 334 334 332 331 331 330 330 330 329 329 329 329 329 330 332 334 334 334 333 332 332 332 329 328 327 326 328 329 328 328 328 330 330 329 329 329 329 328 328 327 327 326 326 326 325 325 325
343 343 343 342 341 340 338 337 338 338 339 340 340 338 335 334 334 334 333 332 333 333 333 333 334 334 333 333 333 334 333 333 333 333 334 334 334 335 336 336 335 333 332 330 329 329 329 329 329 328 329 330 332 333 334 334 334 333 332 332 330 329 328 328 330 330 329 328 329 330 329 328 329 329 329 328 328 327 326 325 326 326 325 325 325
343 343 342 341 340 339 338 339 338 339 340 340 340 338 336 335 335 333 331 333 335 335 335 335 336 334 334 334 334 334 334 333 332 333 333 334 336 336 337 337 336 336 335 333 331 329 328 328 328 329 329 329 331 333 334 334 334 334 333 332 331 329 329 329 330 330 329 327 329 330 328 328 329 329 329 328 327 327 326 325 326 326 325 325 325
343 342 342 341 340 338 339 339 339 340 340 340 340 339 337 337 335 332 332 335 336 336 336 337 337 335 335 334 335 335 334 334 333 332 332 333 334 335 336 336 336 335 335 333 330 328 328 327 327 328 329 329 330 332 333 333 334 334 333 332 331 330 329 328 329 330 330 328 329 328 327 329 329 329 329 327 327 327 325 325 325 325 326 325 325
342 342 341 341 340 339 339 339 339 340 340 340 340 339 338 337 335 333 333 336 337 337 338 338 337 336 334 334 335 335 334 334 333 332 332 330 328 329 330 329 329 328 328 327 325 325 326 326 327 328 328 329 329 331 333 333 334 334 333 333 332 331 329 328 328 329 330 330 330 327 327 329 329 329 328 327 327 327 326 326 325 325 324 325 325
342 342 341 341 340 340 340 339 339 340 340 340 340 340 338 337 335 334 336 337 337 337 338 339 338 336 334 334 335 335 334 335 334 334 334 331 325 323 323 322 322 322 322 322 321 322 324 325 326 327 328 329 329 330 332 332 333 334 333 333 332 332 330 328 328 329 331 331 331 329 329 330 329 329 328 327 327 326 325 325 325 325 324 324 324
342 342 342 341 341 341 341 340 339 340 340 340 341 341 338 336 335 335 337 338 338 338 339 340 339 336 334 335 335 334 335 335 336 335 335 332 326 323 323 323 322 322 322 322 323 324 326 327 327 328 328 329 329 330 331 332 332 334 334 333 333 332 330 329 329 330 331 331 331 330 331 330 329 328 327 327 327 326 324 325 325 324 324 324 323
341 342 342 341 340 341 341 340 340 340 339 340 341 341 338 336 335 336 337 338 338 339 339 339 338 337 335 335 335 335 335 335 336 335 335 333 329 327 326 325 324 323 324 324 326 327 328 329 329 329 329 329 329 329 330 331 331 333 334 334 333 332 331 329 329 329 331 333 331 329 331 330 330 329 327 326 326 325 323 325 324 322 323 323 322
342 342 341 341 340 340 341 340 340 340 339 340 340 340 338 335 335 336 337 338 338 338 338 338 338 337 335 335 335 335 336 336 336 335 335 333 330 327 325 324 325 326 326 326 327 329 330 330 330 330 330 329 329 329 330 331 331 331 333 334 333 332 332 330 329 329 331 333 330 329 331 331 331 331 330 328 326 324 323 325 323 321 323 323 322
342 342 341 342 341 340 341 340 339 339 338 339 340 340 337 336 336 337 338 339 338 338 338 337 337 336 334 334 334 336 336 336 335 334 334 333 331 327 324 326 328 328 327 328 328 329 330 331 331 330 330 329 329 329 329 329 329 329 331 333 334 333 332 331 330 329 331 333 330 328 330 332 331 331 331 329 325 323 322 322 321 322 323 323 322
342 342 341 341 340 340 341 340 339 339 338 339 339 339 337 336 336 338 338 338 338 338 338 337 336 335 334 333 334 335 336 334 334 334 334 334 332 329 328 330 329 327 328 328 329 329 330 331 331 331 330 329 328 328 328 328 328 328 328 331 333 334 332 331 330 330 331 333 331 329 330 332 331 331 331 329 325 321 318 318 321 324 322 319 318
342 342 341 341 340 340 341 340 339 339 338 338 339 339 337 335 335 337 337 337 337 337 337 336 334 334 333 333 333 335 335 334 334 333 333 334 333 332 331 332 330 330 330 330 331 331 331 331 331 331 330 329 328 327 328 328 329 329 329 330 333 333 333 332 329 329 331 332 331 329 330 332 332 331 330 329 326 319 314 314 319 320 317 315 316
341 341 340 341 341 340 341 340 340 339 338 338 339 338 336 334 335 337 336 336 337 337 336 334 333 333 332 332 334 334 334 334 334 333 333 333 333 333 332 332 332 332 333 333 332 332 332 331 330 330 330 330 328 327 327 328 328 329 330 331 332 333 333 332 329 330 331 331 329 329 330 332 332 331 329 329 327 322 319 317 318 318 318 320 321
339 340 339 340 341 340 340 340 339 339 338 339 339 338 335 335 336 336 336 337 337 336 335 334 333 333 332 333 334 333 333 333 333 333 334 333 333 333 333 333 332 332 334 333 332 331 331 331 331 330 330 329 328 328 327 328 328 329 330 331 332 333 333 332 330 331 331 330 329 329 331 331 331 331 329 328 327 327 326 322 322 323 324 325 324
338 339 340 339 340 340 340 340 339 338 338 338 338 337 335 335 336 336 336 337 336 336 335 334 333 333 333 333 333 333 333 333 332 333 333 333 333 333 333 333 333 332 333 333 332 331 331 331 330 330 329 329 328 328 328 328 328 329 330 332 332 333 333 332 332 332 332 331 329 329 331 332 331 331 330 328 327 328 328 327 326 327 327 327 326
337 338 340 340 339 340 340 339 338 338 338 338 337 337 336 335 335 336 336 336 336 335 334 333 333 333 333 333 333 333 333 333 333 332 332 332 332 332 333 333 333 332 332 332 333 332 331 331 330 330 330 330 329 328 328 328 327 329 330 332 332 333 333 333 333 332 331 331 329 328 331 332 331 331 330 329 328 328 328 329 328 328 328 328 327
336 337 339 340 339 340 340 338 337 338 338 337 336 336 335 334 336 336 336 336 335 335 334 333 333 333 332 332 332 333 332 332 333 332 332 332 332 332 332 331 331 331 331 332 332 332 331 331 330 331 331 330 330 328 328 329 328 329 330 331 332 332 333 333 333 332 331 331 330 329 331 332 332 331 330 329 329 328 328 328 327 328 328 327 328
336 338 338 338 339 340 339 337 337 337 337 337 336 336 334 334 335 335 335 335 335 335 335 334 333 333 332 331 332 332 332 332 332 332 332 333 332 332 332 331 331 331 331 331 331 331 331 331 331 331 331 330 330 329 329 329 329 329 330 331 331 332 332 332 332 331 331 332 332 331 331 332 331 331 331 330 329 328 328 328 327 327 326 326 328
337 337 338 337 338 339 338 336 336 337 337 336 335 335 334 335 336 335 335 335 334 334 335 334 333 333 332 331 331 332 332 332 331 331 332 333 333 332 332 331 330 331 331 331 331 331 331 331 330 331 331 330 330 329 329 329 329 329 330 331 331 332 332 332 331 331 332 332 332 331 329 330 330 329 329 329 329 329 328 327 327 326 326 325 326
338 337 338 337 337 338 337 336 336 336 336 335 335 334 334 335 336 336 335 334 334 335 335 334 334 333 332 331 332 332 332 332 332 331 332 332 332 333 331 330 330 331 331 330 331 331 331 331 330 331 330 330 330 329 329 329 329 329 329 330 330 331 331 331 331 330 331 332 331 330 330 330 329 328 329 328 328 329 328 327 326 326 326 325 326
337 337 337 337 337 336 336 336 336 336 336 335 335 334 335 335 335 336 335 334 334 335 334 334 334 334 333 332 332 332 332 332 332 332 332 332 332 332 331 330 330 331 331 331 331 331 331 331 330 330 330 330 330 329 329 329 328 329 329 329 329 329 330 330 330 330 330 331 331 330 330 330 329 329 329 328 328 329 329 328 327 327 326 326 326
337 337 337 337 336 336 335 336 337 336 335 335 334 334 335 335 335 336 335 335 335 335 334 334 334 333 333 332 332 333 333 333 332 332 332 333 332 332 331 331 331 331 331 331 331 331 330 331 331 330 329 329 329 329 329 329 329 329 329 329 329 329 329 329 330 330 329 330 329 329 330 330 329 329 329 328 328 328 328 328 328 329 327 326 326
337 336 336 336 336 335 334 334 335 335 335 335 334 334 335 335 335 335 335 335 335 334 334 333 333 333 333 333 332 332 332 332 331 331 333 333 332 332 331 331 331 332 331 331 331 331 331 331 331 330 329 328 329 328 329 329 329 329 329 329 330 330 329 329 330 330 329 328 328 328 330 330 329 329 329 328 328 328 328 327 328 328 327 327 326
337 336 336 336 336 335 334 333 333 334 334 334 334 334 335 335 335 335 335 335 334 334 333 333 333 333 333 333 332 332 332 332 331 332 332 333 332 332 332 331 331 331 331 331 331 331 331 331 330 329 329 329 328 328 328 328 328 328 328 329 329 329 329 329 329 329 329 329 328 327 328 329 329 329 328 328 328 328 328 328 327 327 327 327 326
337 336 336 336 336 335 335 333 332 332 333 334 334 334 335 334 335 335 335 334 334 334 334 334 333 333 333 332 332 332 332 332 332 332 332 332 332 332 332 331 331 331 330 331 331 331 331 330 330 329 329 329 328 328 328 329 329 328 329 328 328 328 328 328 328 329 329 329 329 327 328 328 328 328 328 328 328 328 328 328 328 328 328 327 327
337 336 336 336 335 334 334 332 332 332 333 334 335 335 335 334 334 335 335 334 334 335 334 334 333 333 332 332 332 332 331 332 332 332 332 332 332 332 332 331 331 331 330 330 331 331 330 330 330 329 329 328 328 328 328 329 329 328 329 328 328 329 328 327 327 328 328 329 328 328 328 329 328 328 328 328 328 328 328 328 328 328 328 327 328
337 337 337 336 334 333 333 332 333 333 333 334 335 335 334 334 335 335 334 334 334 334 334 334 333 332 332 332 332 331 331 332 331 332 331 331 332 332 332 332 331 331 330 330 330 330 330 330 330 330 329 328 328 328 328 329 329 329 329 328 327 328 328 328 327 327 328 328 328 328 328 328 328 328 328 328 328 327 327 328 328 327 327 327 328
337 337 337 336 334 333 333 332 333 333 332 334 334 335 334 334 334 334 334 334 334 334 333 332 332 332 332 332 332 332 332 332 331 331 331 330 331 331 331 331 331 331 330 330 331 330 330 330 330 330 329 329 328 328 328 329 329 328 328 327 328 328 328 327 327 327 328 328 327 327 327 328 327 327 327 327 327 326 326 326 326 326 326 326 326
336 337 337 336 335 334 333 332 332 332 332 333 335 334 334 334 334 334 334 334 333 333 333 332 331 331 331 332 332 332 332 332 331 331 331 330 330 331 331 330 331 331 330 330 331 331 330 330 330 330 329 329 329 328 329 329 328 327 326 327 328 328 328 327 327 327 327 327 327 326 327 328 327 326 326 325 325 325 324 324 325 325 325 324 324
336 336 336 336 336 335 333 332 331 331 331 333 335 335 334 334 334 335 335 334 333 332 331 330 330 330 330 330 330 329 330 330 330 330 330 330 330 330 330 330 330 330 330 330 330 330 330 330 330 330 330 329 329 329 329 329 329 327 326 327 328 328 328 327 327 327 327 327 326 326 327 327 326 325 324 324 323 323 324 324 324 324 323 324 324
335 335 336 336 336 335 333 331 331 331 331 332 334 335 335 334 334 335 335 334 333 329 327 327 328 328 328 328 327 326 327 327 327 328 329 329 329 329 330 330 330 330 330 330 330 330 330 330 330 330 329 329 329 330 330 330 330 329 328 328 329 328 328 328 328 327 327 327 326 326 326 324 324 323 323 323 323 323 323 323 323 323 323 323 324
334 334 335 336 336 335 334 332 331 331 331 333 335 334 335 333 332 334 335 333 330 327 326 327 327 327 327 327 327 327 327 327 326 326 327 328 328 329 329 330 329 330 330 330 329 329 329 330 330 330 329 329 329 330 331 331 331 330 329 329 329 328 327 327 328 328 327 326 326 326 325 323 323 322 322 323 323 323 323 323 323 323 322 322 322
333 334 334 335 335 334 334 333 332 331 331 333 334 334 334 332 331 334 334 331 329 327 327 327 327 327 327 327 327 327 326 326 326 326 326 327 328 329 329 329 329 329 329 329 329 329 329 329 330 330 329 329 329 329 330 331 331 330 330 329 329 328 328 327 328 328 327 326 326 326 325 324 323 321 321 321 322 322 322 322 322 321 321 320 317
332 333 333 333 334 334 333 332 331 331 331 332 334 334 334 332 332 334 333 331 330 328 328 328 327 327 327 327 327 326 325 325 325 325 326 327 328 328 327 327 327 327 328 327 328 328 328 328 329 329 329 329 329 329 329 330 330 330 329 329 329 329 329 329 328 328 327 326 326 326 325 324 323 321 319 319 319 319 319 319 318 318 317 314 311
Wind_Speed
25 26 27 29 29 28 27 27 26 26 26 26 26 25 26 26 28 29 29 30 29 29 28 26 25 26 25 24 23 23 23 24 23 22 21 21 21 20 20 20 19 19 19 19 19 21 22 22 21 21 21 21 21 21 20 20 20 20 19 18 18 17 17 18 18 16 16 17 17 17 17 17 17 17 17 18 19 20 20 19 19 20 20 19 20
27 26 27 29 29 28 27 26 26 27 26 26 26 25 26 27 28 28 28 28 27 26 25 24 24 25 24 23 23 24 23 22 22 22 21 21 21 21 20 20 19 19 19 19 20 22 22 21 21 22 22 21 20 20 20 19 19 20 20 18 18 17 17 18 18 16 16 16 17 17 17 17 17 17 17 17 18 19 20 18 18 20 19 18 19
26 26 25 28 29 27 26 26 26 27 27 27 26 25 26 27 27 27 27 26 25 25 24 24 24 23 22 24 25 24 23 21 21 22 22 22 22 21 21 20 20 19 20 21 22 23 22 21 21 22 21 20 19 19 19 18 17 18 19 19 18 18 17 17 17 16 16 16 17 18 17 17 17 16 16 17 17 17 18 19 18 18 18 17 18
25 25 26 29 28 27 26 26 26 27 27 27 27 26 26 26 26 26 26 26 25 24 23 23 23 23 24 25 24 23 22 22 21 21 22 22 22 21 21 20 20 20 21 22 22 22 21 20 21 21 20 19 19 18 18 17 16 16 17 18 18 18 18 16 16 17 16 17 19 18 16 17 17 16 15 16 16 16 16 17 17 17 17 16 17
24 25 26 27 25 27 27 26 26 26 26 26 27 27 27 27 27 27 27 26 24 23 22 23 24 24 25 25 24 24 23 23 21 20 21 21 21 20 20 20 19 20 22 22 21 21 20 20 20 20 19 18 17 16 16 15 14 14 15 16 17 18 18 17 17 18 15 16 18 17 15 15 16 15 14 14 14 14 14 15 15 15 16 15 16
25 25 25 24 23 26 27 27 26 26 26 26 27 27 27 27 26 26 25 24 23 23 22 23 24 24 23 23 23 23 24 23 22 21 20 20 20 19 19 19 19 20 21 21 21 20 19 19 19 18 17 16 15 14 14 13 12 13 13 14 16 17 18 18 18 17 16 15 15 15 14 14 14 14 13 14 13 13 13 13 13 14 14 14 14
23 24 25 23 22 25 27 26 26 25 25 25 25 25 25 26 26 24 23 23 23 23 23 23 23 22 21 21 21 22 23 23 22 22 21 20 20 19 18 19 20 20 21 21 19 19 18 18 18 17 16 15 14 13 12 11 11 12 12 12 15 16 17 19 19 18 17 14 13 13 13 13 13 13 12 12 12 12 12 11 11 12 12 13 13
22 23 23 23 22 26 28 26 26 25 25 24 24 24 24 25 25 23 23 23 23 23 23 22 21 21 20 20 21 21 22 21 20 21 21 19 19 19 19 19 20 20 20 19 18 18 17 17 17 16 15 14 13 12 11 11 10 11 11 10 13 15 16 18 19 18 17 14 13 13 12 12 12 12 11 11 11 11 11 10 10 11 11 11 12
21 23 22 22 24 27 27 26 26 25 25 24 23 24 23 24 24 24 25 24 24 23 22 21 20 19 19 20 21 20 20 19 18 19 20 19 19 18 18 19 20 20 19 18 17 17 17 17 16 15 14 13 12 12 11 11 11 11 10 10 12 14 15 17 18 17 15 14 13 13 12 12 11 11 10 10 9 9 10 10 10 10 10 11 11
21 22 21 21 25 27 27 26 26 25 25 24 23 24 24 25 26 26 26 25 24 22 22 21 21 19 19 20 19 18 17 17 17 18 19 19 19 18 18 18 20 20 18 17 17 16 16 16 15 14 14 13 12 11 11 12 12 12 12 11 12 13 14 16 17 16 14 14 14 14 14 13 13 12 11 11 9 8 9 10 10 9 10 10 10
21 21 20 21 26 28 27 26 26 26 25 24 24 24 25 26 26 25 25 24 22 21 21 20 21 20 19 19 18 17 16 16 17 18 19 19 18 18 17 19 20 19 18 17 17 16 16 15 14 14 13 12 11 11 12 13 15 15 14 13 13 14 15 16 16 15 14 14 15 15 15 15 14 14 14 13 11 10 10 10 10 10 10 10 10
21 21 19 21 25 27 27 27 26 26 25 25 25 25 25 25 25 24 23 23 21 20 19 19 20 20 19 19 17 17 17 16 17 18 19 18 16 15 16 18 19 19 18 17 17 16 16 14 14 14 12 11 10 11 12 15 16 15 15 14 14 14 15 17 15 14 14 14 15 15 14 14 15 15 14 13 12 11 11 10 10 9 10 10 10
21 21 20 22 24 26 27 27 27 27 26 25 25 26 25 25 23 22 22 21 21 20 19 19 19 19 19 18 17 16 16 16 16 17 18 16 13 13 16 17 18 19 18 17 16 16 16 14 14 14 12 11 10 11 13 15 15 15 15 15 14 15 16 17 16 14 14 13 14 14 14 14 14 15 14 13 12 12 11 10 10 10 11 12 12
23 22 20 21 23 24 26 27 28 27 27 25 25 25 25 25 23 22 21 20 20 19 19 19 19 18 18 17 16 15 15 15 16 16 17 15 12 13 16 18 18 18 17 16 16 15 15 14 14 14 13 11 10 11 13 14 14 14 14 14 14 14 15 17 15 14 14 14 14 14 13 13 14 14 13 13 12 12 11 11 11 12 12 12 12
23 24 22 21 22 22 24 27 28 27 26 25 25 24 25 24 22 21 20 19 19 18 18 18 17 17 16 16 15 15 14 14 14 15 15 14 14 15 16 18 18 16 16 16 15 15 14 13 13 14 13 12 10 11 12 13 13 14 13 13 13 14 15 15 13 13 13 13 13 13 12 13 14 14 13 12 12 12 12 12 13 13 13 12 12
22 23 22 22 23 21 22 24 26 26 26 25 24 23 24 22 21 20 19 19 18 18 17 17 16 16 15 14 14 14 14 14 14 14 14 14 15 15 15 17 17 16 16 15 14 14 13 12 12 13 13 12 11 10 11 12 13 12 12 12 12 13 14 14 12 11 11 11 12 12 12 12 13 13 13 13 13 13 12 13 14 13 13 13 13
21 21 21 22 22 21 21 22 23 24 25 25 24 23 22 21 20 20 19 19 18 18 17 17 17 16 15 14 15 15 15 14 14 14 13 14 14 14 15 15 15 15 15 14 13 12 12 12 12 12 12 12 12 11 10 11 12 12 11 11 11 11 13 14 12 10 10 11 11 10 10 12 13 12 12 13 13 13 12 12 13 12 12 13 13
21 20 20 21 21 21 22 22 22 22 24 24 22 22 22 21 20 19 19 19 18 18 18 18 18 17 16 16 16 16 16 15 14 14 14 14 14 14 16 15 14 14 14 13 12 12 11 11 11 11 12 12 12 12 10 10 11 11 11 10 10 10 11 13 12 10 10 11 10 9 10 12 12 11 11 12 12 12 11 12 12 12 12 13 13
21 20 19 20 20 21 22 21 21 22 22 22 21 21 21 20 19 19 19 19 19 19 19 19 18 18 17 17 17 16 16 16 15 14 14 13 13 14 15 15 14 14 13 13 12 11 10 9 10 11 11 11 11 12 10 9 10 11 11 10 9 9 9 11 10 10 10 10 9 9 10 12 11 11 11 11 12 11 11 12 12 11 12 12 12
20 20 20 20 21 22 22 21 21 22 22 21 21 20 20 19 19 19 19 20 19 19 19 19 19 18 17 17 16 16 16 16 15 14 13 12 12 14 14 14 13 12 12 12 11 10 10 9 9 10 11 11 11 11 11 9 9 10 11 10 9 8 8 9 9 9 9 10 10 9 11 11 10 10 11 10 11 11 10 12 12 11 11 11 11
19 20 20 20 22 23 22 21 21 21 21 21 21 20 20 19 18 19 19 19 19 19 20 19 20 18 17 17 16 17 17 17 15 14 13 12 12 13 13 12 11 10 10 10 9 9 9 9 9 10 11 11 11 11 11 10 9 10 11 11 9 8 8 8 9 9 9 10 10 9 11 11 9 10 10 10 10 10 10 11 11 11 11 11 11
19 21 21 20 22 23 22 22 22 21 21 21 20 20 20 19 18 19 18 18 18 19 20 19 19 18 17 17 16 17 17 17 16 15 13 11 11 11 11 10 10 9 8 8 8 9 9 9 9 9 10 11 11 11 11 11 9 10 11 11 10 8 7 7 8 9 8 9 9 10 12 11 9 9 9 9 10 9 10 10 10 10 11 11 10
20 20 22 20 21 22 21 22 22 22 22 21 20 20 21 20 18 18 18 18 18 19 19 18 17 18 18 16 16 15 15 16 15 15 13 11 10 10 10 9 9 9 9 9 9 10 10 9 9 8 8 10 10 11 11 11 10 9 10 11 10 9 7 6 7 8 8 9 8 10 11 10 9 9 8 9 9 9 9 10 10 10 10 10 10
21 20 21 20 21 21 20 21 22 22 21 21 20 19 21 20 18 18 19 19 18 18 17 16 17 17 17 16 15 14 14 15 15 14 13 11 11 11 11 10 9 10 10 11 11 11 10 10 9 8 8 9 10 10 11 10 10 9 10 12 11 9 7 6 7 7 8 9 8 9 10 10 10 9 8 9 8 8 8 9 9 9 10 9 9
20 20 20 21 22 22 21 22 21 21 20 20 20 20 22 20 18 18 18 19 18 18 17 17 17 17 16 15 14 14 14 15 15 14 13 11 11 11 10 10 10 11 11 12 12 11 11 10 9 9 8 8 9 9 10 10 9 9 10 12 11 10 8 7 6 7 8 8 7 10 11 10 9 9 9 9 7 6 7 8 7 8 10 9 9
18 19 20 21 23 23 22 22 21 20 19 19 20 20 22 20 18 18 17 17 17 17 17 17 17 16 15 14 14 14 14 14 14 13 12 10 10 10 10 10 10 11 12 12 12 10 10 9 9 9 9 8 9 9 9 9 9 9 10 11 12 11 9 8 7 7 8 7 7 10 11 9 8 8 9 8 6 6 7 7 6 8 10 9 8
17 18 19 20 23 23 21 23 21 21 21 20 20 20 20 18 17 17 16 16 17 17 17 16 16 15 15 14 13 14 14 13 13 12 10 9 10 10 10 9 9 10 11 10 10 9 8 7 7 8 8 9 9 9 10 10 9 8 9 10 11 11 10 9 8 7 8 7 7 10 12 10 7 8 8 8 8 5 6 6 6 9 9 8 8
17 18 19 20 23 23 22 22 22 22 21 20 20 19 18 18 17 16 16 16 16 17 16 16 16 15 14 13 13 14 14 13 11 11 10 9 9 10 9 7 8 10 10 9 8 7 6 6 6 7 7 8 8 9 10 10 10 9 9 10 11 11 11 10 9 9 8 7 8 9 12 10 7 7 8 9 10 6 6 6 7 8 7 8 9
17 18 20 21 23 23 23 23 21 21 21 21 20 17 17 18 17 16 16 17 16 17 17 17 16 15 14 13 13 13 13 11 11 11 10 9 9 9 8 8 8 8 8 7 7 6 5 5 5 5 6 7 7 8 9 10 10 9 9 10 11 11 11 10 10 9 8 8 9 9 12 10 6 6 8 9 10 8 8 8 9 8 8 9 10
13 16 20 21 23 23 22 22 21 21 21 21 19 17 17 18 17 17 16 16 16 17 17 16 16 14 14 13 12 12 11 10 11 11 10 9 9 9 8 8 7 7 6 6 6 6 5 5 4 5 5 6 6 7 7 8 9 9 9 9 10 11 11 12 11 10 8 9 10 10 11 10 7 6 8 8 9 9 10 10 10 9 9 9 10
12 13 20 21 22 22 21 21 21 22 22 19 16 16 18 18 17 17 15 16 18 18 17 16 16 15 14 13 11 11 9 9 10 10 10 9 8 7 7 7 7 7 5 5 6 6 5 5 4 4 5 5 6 6 7 7 8 8 8 9 10 10 11 11 10 9 8 9 10 10 10 9 7 7 7 8 8 7 8 9 9 8 8 8 9
14 12 19 22 22 21 21 21 20 22 19 15 14 16 18 17 17 17 15 17 19 18 18 17 16 15 14 13 11 10 8 8 8 8 9 9 7 6 6 6 6 6 4 4 5 5 5 4 4 4 4 4 5 6 6 6 7 7 7 8 8 7 7 8 8 8 9 9 10 11 10 8 8 8 7 7 8 7 6 7 6 6 6 7 8
20 16 17 20 21 19 21 23 21 19 16 15 15 16 17 17 17 15 14 18 19 18 18 16 15 14 13 12 10 8 7 7 7 7 7 7 6 6 6 6 6 5 4 4 5 4 4 4 4 4 4 4 5 6 5 5 6 6 5 5 5 5 6 7 6 8 9 9 9 11 10 8 8 8 7 4 5 7 6 5 4 4 4 5 5
27 22 19 19 19 18 21 24 21 18 16 15 15 15 17 16 15 13 13 17 18 17 17 16 14 14 12 11 9 7 6 7 7 7 7 7 6 5 5 6 6 5 4 5 4 5 4 4 4 3 3 4 4 5 5 4 4 4 3 3 3 4 5 6 6 7 9 9 9 9 9 7 6 7 6 4 3 5 5 4 4 4 4 3 3
24 22 22 21 18 19 22 23 21 18 16 16 14 15 16 15 14 13 13 16 17 16 16 15 13 13 12 10 8 6 6 7 8 7 7 7 6 5 5 6 6 5 5 5 6 6 5 5 5 3 3 4 4 4 4 4 4 3 3 3 3 3 3 5 6 8 8 8 7 8 8 7 7 6 6 5 3 5 5 3 4 5 5 4 3
20 20 21 23 19 19 22 21 21 20 17 15 14 14 15 15 14 13 14 15 16 15 15 14 12 11 11 10 9 7 6 8 8 8 7 6 6 5 5 6 6 6 6 7 7 6 5 6 6 4 4 4 4 4 4 4 4 4 3 4 4 3 4 5 6 7 7 6 6 8 9 9 8 7 7 5 3 5 6 4 5 5 5 5 5
21 22 21 23 22 21 22 21 21 22 19 16 14 13 15 16 14 13 14 15 15 15 14 13 12 11 11 11 10 8 8 8 8 8 7 7 7 6 6 7 7 6 7 8 7 6 5 5 6 4 3 4 5 5 4 4 4 5 5 5 5 4 4 4 5 6 6 6 6 8 9 8 7 7 7 6 3 4 6 5 4 3 4 5 5
22 23 23 22 22 22 24 23 22 23 21 18 15 15 16 16 14 13 14 14 14 13 13 12 11 11 10 10 10 9 9 8 8 8 8 8 7 7 7 8 8 7 7 7 6 7 6 5 5 4 4 4 5 5 5 5 6 6 6 6 6 5 5 5 5 6 6 6 5 6 7 7 7 7 6 6 4 4 6 5 3 2 2 3 4
23 23 22 21 22 22 22 22 23 23 20 17 17 16 17 15 13 13 13 13 13 13 12 11 11 10 9 10 11 10 9 9 9 9 9 9 8 8 9 9 8 7 7 6 6 7 7 6 5 5 6 5 5 6 6 7 8 8 8 8 8 8 7 6 7 6 6 6 4 4 5 7 7 5 5 5 4 5 6 5 3 3 1 0 1
23 23 21 21 21 21 21 20 21 23 20 17 17 18 17 16 14 15 14 13 13 13 11 11 11 10 9 10 11 10 10 10 11 11 10 9 8 9 10 10 9 7 6 7 6 6 7 7 6 6 7 7 6 7 7 8 10 11 11 11 10 10 9 8 8 7 6 6 4 5 6 7 6 5 5 5 5 5 5 4 4 3 2 1 1
22 23 22 21 21 23 23 20 19 22 21 19 19 20 18 17 16 16 14 12 12 12 11 11 11 10 10 10 10 11 12 12 12 12 10 9 9 10 11 11 9 8 6 6 7 7 7 7 6 6 7 8 8 7 8 10 11 11 11 11 11 10 10 9 9 8 5 5 5 6 6 6 6 5 5 5 5 5 5 4 4 3 2 2 1
22 23 23 21 23 25 23 20 20 21 21 19 20 21 19 18 18 15 13 12 11 11 11 12 12 11 12 11 11 12 12 12 12 11 10 9 10 10 11 11 10 8 7 8 8 7 7 7 7 7 7 7 7 9 10 8 8 9 10 10 10 10 9 9 9 8 6 6 6 6 6 6 6 6 6 6 5 5 4 4 3 2 2 1 1
22 24 23 21 25 26 21 20 22 21 19 20 20 19 18 18 17 15 13 12 11 12 12 13 13 13 13 13 12 13 12 10 10 10 9 10 9 9 10 11 10 9 8 9 9 8 7 7 7 7 7 7 7 9 9 5 7 9 8 7 5 5 7 8 9 8 7 8 8 5 4 5 5 6 7 6 5 5 4 4 3 2 1 1 1
20 23 23 22 25 25 20 21 23 22 21 20 18 16 17 16 14 13 14 12 13 13 12 11 12 13 14 13 12 12 11 10 10 10 9 9 9 9 10 10 10 9 8 9 9 9 8 7 7 7 8 8 8 9 6 4 8 8 5 4 3 3 3 5 7 8 7 7 8 7 6 7 6 5 6 6 5 5 4 3 3 2 1 1 1
18 20 22 22 24 24 22 24 24 23 22 20 17 16 16 16 14 15 15 14 15 15 13 12 12 12 13 13 12 11 10 10 10 9 9 9 9 9 9 9 9 8 8 8 8 8 8 7 6 6 8 8 9 10 7 5 7 6 4 4 3 1 3 6 7 6 6 7 9 9 8 8 9 9 8 7 5 5 4 3 2 2 1 2 3
16 18 20 21 24 25 24 25 23 23 23 21 18 16 15 17 18 18 17 17 17 16 15 15 14 12 12 13 12 11 10 9 10 9 8 9 9 9 9 9 9 8 7 8 7 7 7 7 6 6 8 8 8 10 9 7 6 6 5 3 1 1 5 9 6 4 6 8 9 10 10 10 11 11 9 6 5 5 5 4 4 5 6 7 7
15 18 21 21 22 25 25 24 23 23 25 23 20 17 17 18 18 18 18 18 18 17 17 17 16 14 14 14 13 12 11 10 10 9 9 8 8 8 8 8 8 8 8 8 7 6 6 7 7 6 8 9 8 10 10 9 8 6 5 2 1 2 7 7 5 5 6 6 8 11 11 10 11 10 8 8 9 8 9 8 9 10 10 10 11
16 18 21 20 20 23 23 25 26 25 26 26 22 18 18 20 19 17 17 18 19 20 20 19 17 17 17 16 14 13 13 11 11 10 9 9 8 8 9 8 8 8 7 7 6 6 7 7 7 7 8 9 9 8 8 9 9 7 5 2 1 4 6 5 5 6 6 5 7 10 11 10 10 9 9 11 11 10 10 10 10 10 10 10 10
16 17 20 20 22 23 23 25 27 28 27 27 24 21 22 24 23 21 20 20 21 23 22 19 19 18 17 16 14 13 13 12 11 10 9 9 9 9 9 8 8 7 6 6 6 7 7 8 8 8 8 9 8 7 7 8 8 8 6 4 4 6 6 4 6 7 7 7 6 8 10 10 10 9 9 10 9 10 10 10 10 10 9 9 10
15 17 18 21 22 22 23 24 25 27 25 24 25 24 25 26 25 25 25 24 24 23 22 20 20 19 18 17 15 13 12 11 11 10 9 9 9 9 8 7 7 6 6 6 6 7 7 7 7 8 9 9 8 8 7 7 7 8 7 6 6 8 7 6 7 7 7 7 6 9 10 9 8 7 7 8 8 9 10 9 10 10 10 11 13
14 16 16 19 21 20 21 21 22 26 24 23 27 27 26 26 25 26 27 26 25 24 22 21 20 20 19 18 16 14 12 11 11 10 9 10 10 10 8 7 6 6 6 6 5 6 6 7 7 7 8 9 8 8 7 7 7 8 7 6 6 8 7 7 8 8 7 7 8 9 9 9 9 8 7 8 7 8 8 9 10 11 13 15 17
Wind_Direction
157 157 156 156 153 149 147 143 142 142 142 141 140 137 137 140 145 146 146 146 143 142 140 137 135 134 131 131 132 132 130 129 130 130 130 129 128 127 126 125 123 122 121 120 117 115 115 114 113 111 109 106 104 103 101 98 92 88 90 91 91 94 100 104 101 93 83 81 88 95 95 93 91 90 87 84 84 84 85 83 84 85 83 84 84
154 154 154 155 151 149 147 144 144 143 142 142 140 135 135 137 141 142 142 143 141 139 137 135 134 132 130 133 133 130 129 129 130 130 129 128 129 127 127 127 125 123 122 120 116 116 117 115 114 113 110 107 107 106 104 100 93 85 85 89 93 95 100 105 104 101 95 86 85 92 92 92 90 89 88 85 84 84 86 84 83 84 82 82 82
147 149 150 152 150 149 146 144 144 142 142 142 141 135 135 137 137 139 140 142 142 139 136 136 134 132 134 135 132 129 130 130 130 129 129 129 130 129 130 129 125 123 123 121 118 118 117 116 115 113 111 109 109 106 103 99 93 85 80 83 92 97 101 106 109 110 107 97 89 87 87 90 89 87 88 86 85 84 85 85 84 84 83 81 81
145 147 148 150 149 148 146 145 144 142 142 143 144 139 135 134 135 137 139 141 141 140 138 137 135 135 135 132 130 132 133 131 129 128 129 130 129 129 129 127 124 121 123 122 120 119 118 116 115 113 113 112 110 106 103 100 94 86 79 79 87 97 101 104 114 115 109 107 96 86 88 89 88 88 88 87 87 86 84 84 83 83 82 80 81
144 145 146 147 146 147 146 145 144 141 141 142 144 143 139 135 135 137 138 138 137 137 137 136 135 134 132 131 134 134 132 130 129 129 128 127 126 125 124 124 123 122 123 122 120 120 119 118 115 114 114 113 110 107 106 105 97 85 81 79 83 95 102 107 117 117 113 115 101 91 93 88 84 85 86 87 85 85 83 82 80 81 80 77 76
144 145 144 144 144 145 146 145 143 142 141 141 143 144 144 141 139 137 135 133 133 133 132 131 130 129 129 130 133 132 131 129 128 128 126 125 125 124 124 125 124 124 125 124 123 121 120 118 116 115 114 112 110 109 109 109 103 90 84 81 84 94 104 111 118 119 116 115 101 95 98 89 85 83 81 81 79 81 81 80 78 76 77 75 71
143 146 145 144 143 145 147 146 143 141 140 140 140 141 143 143 142 138 135 135 135 134 131 130 128 129 131 132 133 132 131 129 126 127 126 126 125 125 127 126 125 126 127 126 124 122 121 120 119 117 115 114 112 110 110 110 108 100 91 84 87 96 106 111 116 116 110 102 97 99 99 93 89 84 79 79 80 82 82 82 79 74 76 78 75
144 147 146 144 144 146 148 146 144 140 137 138 137 138 138 138 139 138 138 139 138 137 136 135 134 135 136 137 137 134 130 128 125 124 125 126 126 126 127 127 127 128 127 126 125 124 123 121 120 118 116 116 117 116 113 109 107 107 105 95 91 101 109 112 116 115 106 97 96 99 98 94 89 90 86 80 82 82 80 78 74 70 71 76 78
145 147 147 144 145 148 148 147 143 138 137 138 137 136 135 137 139 138 137 136 136 136 138 137 138 138 136 135 134 130 127 126 126 124 124 126 128 126 125 126 128 129 128 127 128 125 122 122 120 119 119 121 122 116 108 104 105 110 115 107 99 105 112 116 119 113 103 99 98 97 99 96 89 96 96 85 81 73 73 73 71 69 69 73 76
146 149 146 144 146 149 149 147 142 139 139 140 138 136 137 139 139 137 136 135 135 136 138 139 140 139 137 135 132 127 125 127 127 125 123 124 127 124 123 126 130 130 129 128 129 127 125 124 123 123 124 122 116 107 101 102 107 113 117 113 107 108 114 119 118 110 104 103 101 99 100 97 92 98 102 96 92 82 80 81 81 79 73 73 76
146 149 146 145 149 150 149 146 142 140 141 141 138 136 137 139 140 139 137 137 136 137 139 141 141 139 138 135 133 131 130 132 132 131 128 129 130 126 126 132 133 131 130 131 133 130 129 126 126 127 123 118 110 102 103 107 110 111 112 112 109 108 115 120 116 111 109 107 104 104 101 97 94 98 103 101 99 96 91 87 84 81 78 75 78
146 147 147 148 150 150 150 147 144 143 142 142 139 137 138 140 141 138 136 137 137 137 138 141 139 135 134 132 133 133 132 134 138 136 134 134 133 126 129 138 134 131 135 137 137 133 131 128 128 128 121 118 111 105 106 111 113 109 109 110 108 106 113 118 118 116 114 111 108 107 103 98 99 103 105 103 100 98 92 87 85 81 78 75 75
146 147 149 149 150 151 151 149 147 146 144 143 142 140 139 140 139 136 136 137 138 138 138 140 138 135 134 134 136 136 133 135 138 138 138 136 131 124 129 140 138 133 138 139 136 134 133 132 130 129 124 121 113 107 108 113 115 110 109 109 107 106 110 115 118 119 116 115 111 109 106 103 105 106 106 104 102 100 94 88 87 83 78 75 75
149 150 150 150 152 153 152 151 150 148 146 145 144 142 140 140 139 139 139 138 138 138 140 142 141 141 141 140 141 141 141 140 139 140 142 140 134 127 127 139 142 135 137 137 134 134 136 135 133 131 127 124 116 110 109 116 119 114 110 109 107 106 109 114 118 120 118 116 114 111 106 107 111 110 106 104 103 100 95 88 86 87 84 81 81
150 151 151 150 151 152 151 151 150 149 148 146 145 143 141 142 143 143 141 141 141 140 142 144 145 143 142 144 146 147 149 146 144 145 142 141 138 131 127 134 141 137 136 138 136 136 136 133 133 131 128 126 120 112 111 118 123 119 114 110 107 105 109 115 119 120 120 117 116 113 106 112 118 114 108 104 102 99 96 94 91 90 90 87 85
150 151 150 151 150 149 149 149 150 149 148 147 145 144 144 145 147 146 144 143 142 142 143 143 142 140 140 142 144 146 150 148 146 147 141 138 137 132 131 132 137 140 139 139 137 136 133 131 132 131 128 127 123 116 114 120 126 126 119 112 108 105 106 114 120 119 121 120 118 113 108 116 118 114 111 104 101 99 96 97 95 92 93 92 88
149 151 150 151 151 148 148 149 150 148 148 147 145 146 147 149 149 147 145 143 141 141 142 142 140 138 138 138 138 139 144 148 146 148 145 141 137 133 133 133 135 139 140 140 138 138 137 133 132 131 129 126 125 121 116 121 128 131 125 116 111 107 102 108 116 117 118 120 119 110 109 118 118 115 112 107 103 99 96 96 95 92 92 91 89
149 151 151 151 151 150 150 150 151 148 147 147 147 148 149 150 148 146 143 141 141 142 143 142 139 137 136 136 137 137 140 144 144 146 148 146 143 139 136 132 133 137 139 143 146 149 146 138 134 135 133 128 126 125 121 122 129 134 132 122 114 111 102 103 110 114 115 116 115 107 111 121 118 114 108 104 102 98 97 98 94 91 90 90 89
150 150 152 154 153 151 150 151 153 150 149 149 148 149 150 149 148 147 145 143 144 144 144 140 138 137 134 135 136 136 138 139 139 141 144 147 148 146 141 135 135 138 140 147 153 157 155 148 142 140 137 132 129 127 126 124 131 137 136 131 121 114 104 103 110 112 112 114 112 107 115 124 118 110 105 103 101 98 97 98 94 90 93 91 88
151 152 155 158 158 154 152 154 155 154 152 151 149 150 150 148 148 148 146 145 146 145 143 141 139 135 132 134 135 136 137 136 135 137 140 142 141 141 140 136 137 138 138 145 152 156 157 155 150 144 139 136 134 131 129 126 130 138 140 139 130 121 111 109 114 111 109 112 108 108 116 115 110 106 103 101 102 99 96 97 94 88 90 91 90
154 157 159 160 161 158 155 156 157 157 154 152 151 151 150 147 147 147 147 147 149 147 142 141 138 134 134 135 136 136 136 134 132 133 134 136 136 137 139 140 142 142 143 147 151 156 159 157 150 146 141 138 139 138 133 128 128 136 143 144 137 130 122 113 112 110 111 110 105 111 116 109 104 106 105 103 100 95 92 94 94 91 90 88 89
157 162 163 162 163 160 159 159 159 159 155 153 153 152 150 147 146 147 150 151 150 147 142 142 140 136 137 137 136 135 135 133 132 132 131 132 136 140 143 144 148 152 156 155 156 160 161 158 152 146 141 139 143 145 140 134 131 138 146 147 145 143 132 117 111 112 113 112 107 107 111 111 109 108 106 104 101 97 94 94 93 93 94 89 88
160 164 164 163 164 161 161 161 160 160 156 154 153 151 152 148 147 150 152 152 151 148 144 143 142 139 139 139 136 135 135 134 134 134 130 130 132 135 138 138 142 144 147 148 148 148 149 150 149 143 135 135 145 148 144 139 136 142 152 154 154 151 139 125 116 118 118 113 110 106 107 111 110 107 106 101 100 99 96 96 94 92 92 92 92
163 164 164 165 166 164 163 163 161 161 157 155 151 148 153 151 150 154 155 153 152 151 148 147 147 144 142 140 138 137 137 136 134 133 129 128 128 130 131 129 128 127 130 133 131 131 131 133 135 134 128 130 140 146 146 146 140 142 156 161 160 156 149 139 128 128 125 116 116 113 113 116 107 96 101 104 102 97 95 97 98 100 95 92 93
164 164 165 167 169 167 165 163 161 160 159 157 153 151 154 153 153 156 157 156 154 153 152 152 152 150 147 143 142 141 141 139 137 136 133 131 130 130 129 124 120 120 123 125 125 123 121 120 121 122 121 124 132 139 145 150 147 143 152 160 161 159 158 153 143 136 129 122 122 119 118 119 104 84 85 96 101 96 95 99 100 106 99 90 92
164 165 167 169 172 168 164 163 162 161 160 159 154 155 157 155 158 159 157 157 157 157 156 155 154 154 152 149 147 144 144 141 140 140 136 135 135 135 134 127 124 124 125 126 125 120 116 115 114 115 115 118 125 132 141 152 156 152 150 155 158 161 166 164 156 146 133 127 125 122 120 117 106 91 84 81 87 97 100 104 101 99 98 89 84
164 165 167 170 172 169 165 164 164 163 161 159 154 156 161 161 160 159 156 156 156 158 158 157 156 156 157 155 153 148 146 143 141 142 139 140 140 141 140 131 128 128 128 129 126 121 118 116 115 113 112 114 120 127 138 150 159 162 157 155 159 166 171 170 164 155 142 134 131 126 122 119 105 93 93 77 66 92 108 109 102 94 96 94 88
165 166 168 171 172 170 168 167 166 166 163 160 158 159 164 163 160 158 158 157 157 158 158 158 157 159 160 159 156 151 147 145 143 145 143 143 144 145 143 134 131 131 133 133 129 127 122 121 120 114 113 115 118 126 136 146 156 163 165 162 162 168 174 174 172 166 153 138 135 131 127 129 116 86 95 79 54 74 104 101 104 102 98 93 90
171 170 171 170 173 172 170 169 165 164 165 162 163 163 161 161 161 161 160 160 159 159 159 159 158 160 161 159 159 154 150 149 148 149 147 145 147 150 148 143 139 136 138 137 134 132 127 127 126 119 119 119 120 126 133 142 149 157 164 167 168 172 177 179 179 174 158 139 137 138 134 139 134 91 94 83 57 71 88 89 99 99 93 85 80
186 175 176 172 172 174 169 168 165 163 166 166 165 163 159 163 165 162 159 160 159 159 161 159 159 161 161 159 158 156 153 151 151 151 149 148 149 151 153 152 149 144 143 143 141 136 132 131 132 131 128 130 132 129 132 141 146 153 160 168 173 179 184 184 183 176 160 144 139 138 142 148 139 102 95 85 69 81 87 85 91 88 88 87 80
208 186 180 179 174 174 171 167 168 170 169 166 164 161 162 166 165 162 162 161 160 162 163 161 162 162 161 158 156 157 154 152 154 153 150 149 148 150 157 159 157 155 151 154 155 149 140 135 138 143 140 144 146 136 135 142 147 155 162 172 177 181 186 185 183 175 160 152 145 139 147 155 142 119 99 76 69 90 95 88 91 91 90 89 81
208 203 184 183 178 172 170 169 172 176 172 166 165 164 167 167 164 166 165 162 163 165 165 164 165 163 161 159 156 155 155 154 154 155 152 149 147 147 159 166 167 165 162 163 166 165 156 149 147 149 150 150 150 143 138 146 156 160 165 174 173 170 178 177 174 172 165 161 152 146 148 151 143 135 115 76 66 87 101 97 98 101 96 90 79
199 208 191 180 180 172 166 172 175 175 172 171 171 169 170 168 167 169 166 164 166 167 166 166 166 165 163 159 157 155 158 162 158 159 156 151 148 145 153 166 171 171 174 173 169 171 168 165 159 152 149 143 144 143 135 145 160 160 155 159 161 159 167 166 168 172 169 167 161 155 152 145 139 141 137 106 72 78 87 91 99 107 91 83 82
193 200 197 177 173 171 171 179 180 174 173 176 176 173 172 171 170 170 166 167 169 169 168 168 167 167 167 162 159 156 161 167 163 165 165 160 155 149 153 165 172 174 174 172 164 165 166 169 167 155 143 137 137 137 129 130 133 129 129 136 150 156 158 161 168 172 171 172 168 160 152 141 135 139 144 146 106 89 87 66 69 73 48 44 88
188 193 197 186 176 174 182 187 183 181 180 179 178 175 175 173 173 172 169 170 171 171 170 168 167 168 170 170 169 168 168 170 169 171 171 168 164 160 162 168 174 174 169 167 159 158 159 162 166 155 138 131 128 126 121 121 114 107 115 120 126 132 141 158 170 172 170 167 161 157 156 154 152 146 141 151 145 119 116 83 68 64 46 49 84
190 193 193 190 184 178 187 190 185 186 185 180 178 177 177 173 173 173 170 171 171 170 169 168 167 169 172 175 179 184 180 176 178 179 176 173 169 168 169 171 175 171 168 165 158 158 158 162 167 156 140 131 122 119 114 111 112 108 103 98 100 111 128 148 167 169 161 152 148 160 167 167 169 168 156 151 147 132 131 117 91 79 62 59 74
195 196 192 190 188 183 189 192 189 190 188 184 180 177 178 173 171 172 171 171 169 167 167 168 169 171 173 176 181 188 187 185 187 184 178 173 172 173 171 174 175 167 166 163 159 161 160 167 170 152 139 137 127 120 114 110 109 102 95 95 96 108 129 142 157 156 148 143 146 164 173 168 167 177 171 155 147 143 138 128 102 79 61 48 53
198 197 197 193 190 189 191 190 190 192 191 185 179 178 179 175 172 172 171 169 166 165 166 168 170 171 175 178 183 188 188 191 191 185 179 175 176 177 173 174 175 165 161 159 161 168 168 173 170 153 145 142 135 131 123 113 107 100 96 95 96 106 125 134 135 135 133 136 147 164 170 163 161 170 161 144 146 147 139 135 112 72 56 42 41
200 199 198 193 191 191 188 188 189 190 188 181 176 176 175 173 171 168 168 167 164 163 166 169 171 173 178 182 185 187 187 192 193 187 182 179 181 180 173 173 175 167 162 161 166 172 172 173 167 152 144 136 135 134 126 117 109 102 99 95 95 100 109 119 124 128 129 130 139 147 144 149 156 155 138 134 145 141 137 147 135 116 147 221 26
200 199 196 192 188 184 183 190 195 189 181 175 173 174 172 169 167 164 164 165 163 162 164 170 172 176 181 184 186 185 186 193 191 185 181 182 184 178 174 177 177 171 170 170 173 175 173 173 164 145 137 129 128 131 130 124 112 105 105 99 92 93 98 104 106 114 129 134 139 150 149 149 153 146 140 149 156 149 150 164 165 159 167 210 251
199 197 195 189 178 177 182 189 198 191 179 173 174 175 173 167 164 165 163 162 163 162 164 170 172 176 181 181 183 181 183 186 183 180 180 182 183 179 179 180 177 173 176 177 174 171 171 175 165 147 140 136 134 140 140 129 118 114 113 102 89 87 94 98 91 90 104 110 127 159 168 161 154 151 161 170 167 165 165 165 175 178 161 147 187
197 196 196 186 172 177 183 182 194 197 184 176 175 177 175 169 167 167 164 161 163 163 165 168 170 173 175 173 174 173 174 176 175 176 178 180 181 182 184 182 177 176 176 176 172 168 172 177 169 155 148 145 145 152 149 140 132 130 126 114 98 92 90 86 82 84 92 85 99 147 172 165 156 159 167 171 167 166 166 169 174 162 143 134 115
193 198 198 184 174 181 182 179 191 200 192 180 175 176 173 169 169 167 163 158 159 162 162 165 167 167 166 165 167 167 167 170 170 172 176 178 178 180 183 183 182 181 177 173 173 178 181 181 177 167 156 150 151 159 159 154 147 139 136 130 114 110 95 81 79 79 84 86 90 119 146 144 153 171 172 169 169 165 156 154 161 154 163 185 137
185 194 195 181 175 180 180 182 190 196 195 186 177 173 168 166 165 161 160 154 153 156 154 157 161 161 161 162 165 165 166 167 166 170 174 175 174 174 178 181 183 184 178 173 178 188 189 183 183 178 168 158 158 169 172 163 157 150 139 125 124 146 120 99 94 79 79 89 89 101 109 108 117 137 147 149 153 154 145 141 162 188 203 188 160
177 184 187 179 176 179 183 190 193 193 195 189 179 170 163 161 155 153 155 150 149 153 152 155 159 161 161 162 163 162 164 166 167 170 171 170 171 172 176 180 182 184 179 176 182 190 192 187 185 184 182 175 168 174 175 169 169 161 138 122 124 158 139 132 119 87 84 92 88 94 97 99 107 109 111 119 126 126 127 136 158 169 131 110 124
176 179 181 180 181 183 189 192 192 190 192 189 181 171 163 163 160 157 156 152 154 159 159 160 161 161 159 159 160 159 162 167 169 170 167 166 169 171 176 177 179 182 178 179 186 190 193 192 192 192 193 193 181 177 177 177 177 166 152 136 37 40 143 152 147 106 101 96 91 98 101 102 104 99 94 98 105 109 109 111 107 99 88 85 94
175 178 182 184 184 187 193 195 192 191 191 189 184 175 169 169 167 163 161 157 157 162 165 161 159 157 155 155 154 154 157 162 166 168 165 166 167 168 172 172 174 178 176 180 185 190 195 195 197 198 198 202 198 189 183 178 180 185 188 186 18 96 144 156 161 143 124 103 100 105 102 98 93 88 87 91 94 96 96 96 94 91 90 88 88
173 177 181 185 185 186 191 195 195 193 191 188 184 179 176 176 171 164 163 160 157 161 163 159 156 154 153 154 153 154 156 157 159 160 160 164 165 163 165 167 171 174 175 179 181 187 198 198 199 200 200 206 208 205 193 184 186 194 200 211 140 144 150 155 159 155 142 125 118 108 98 91 87 84 92 97 95 95 94 94 95 94 95 96 96
172 177 181 186 190 188 186 190 192 189 188 186 183 184 184 180 175 168 164 162 160 161 160 158 157 157 157 158 159 160 160 159 158 153 152 159 164 164 165 167 169 170 172 177 181 187 197 200 203 204 203 205 210 212 204 202 204 197 190 182 150 149 154 154 160 157 145 143 141 122 110 100 88 77 84 93 90 94 98 98 100 101 99 97 100
173 179 182 186 191 189 183 184 187 186 187 183 181 186 187 182 178 173 166 163 163 163 161 161 161 162 164 165 167 168 165 165 161 154 151 156 162 163 163 165 167 168 171 176 186 192 197 202 207 211 209 206 211 213 212 217 212 197 191 180 161 160 161 160 165 161 147 145 145 134 130 122 105 85 83 90 88 95 102 103 105 104 100 101 106
173 180 183 185 189 189 184 182 181 182 185 183 182 186 185 182 179 175 170 167 167 167 165 166 168 170 173 174 174 173 168 167 164 158 154 154 155 154 150 152 157 165 170 172 181 191 199 206 209 215 213 209 213 213 212 216 204 194 196 192 178 175 173 174 173 166 149 141 143 135 129 129 123 110 98 95 93 98 101 103 106 106 108 111 113